Time,TemperatureF,DewpointF,PressureIn,WindDirection,WindDirectionDegrees,WindSpeedMPH,WindSpeedGustMPH,Humidity,HourlyPrecipIn,Conditions,Clouds,dailyrainin,SolarRadiationWatts/m^2,SoftwareType,DateUTC
2017-09-26 00:00:00,65.8,35.9,29.80,ENE,66,1.0,0.0,33,0.00,,,0.00,0,WeatherHawk,2017-09-26 07:00:00,
2017-09-26 00:05:00,65.7,35.8,29.80,NE,36,1.0,0.0,33,0.00,,,0.00,0,WeatherHawk,2017-09-26 07:05:00,
2017-09-26 00:10:00,65.7,35.8,29.80,NNE,28,1.0,0.0,33,0.00,,,0.00,0,WeatherHawk,2017-09-26 07:10:00,
2017-09-26 00:15:00,65.5,36.4,29.80,ESE,112,1.0,0.0,34,0.00,,,0.00,2,WeatherHawk,2017-09-26 07:15:00,
2017-09-26 00:20:00,65.5,36.4,29.80,ESE,103,1.0,0.0,34,0.00,,,0.00,0,WeatherHawk,2017-09-26 07:20:00,
2017-09-26 00:25:00,65.7,37.3,29.80,SSW,200,1.0,0.0,35,0.00,,,0.00,1,WeatherHawk,2017-09-26 07:25:00,
2017-09-26 00:30:00,65.7,36.5,29.79,ESE,112,1.0,0.0,34,0.00,,,0.00,0,WeatherHawk,2017-09-26 07:30:00,
2017-09-26 00:35:00,65.7,36.5,29.79,SSE,154,0.0,0.0,34,0.00,,,0.00,1,WeatherHawk,2017-09-26 07:35:00,
2017-09-26 00:40:00,65.3,35.5,29.79,East,92,1.0,0.0,33,0.00,,,0.00,0,WeatherHawk,2017-09-26 07:40:00,
2017-09-26 00:50:00,65.1,35.3,29.79,East,96,1.0,0.0,33,0.00,,,0.00,0,WeatherHawk,2017-09-26 07:50:00,
2017-09-26 00:55:00,64.9,35.1,29.79,ESE,120,2.0,0.0,33,0.00,,,0.00,0,WeatherHawk,2017-09-26 07:55:00,
2017-09-26 01:00:00,64.9,35.1,29.79,ESE,116,1.0,0.0,33,0.00,,,0.00,0,WeatherHawk,2017-09-26 08:00:00,
2017-09-26 01:05:00,64.9,35.1,29.79,East,99,2.0,0.0,33,0.00,,,0.00,0,WeatherHawk,2017-09-26 08:05:00,
2017-09-26 01:10:00,64.8,35.0,29.79,SE,126,1.0,0.0,33,0.00,,,0.00,1,WeatherHawk,2017-09-26 08:10:00,
2017-09-26 01:15:00,64.4,34.7,29.79,ESE,112,2.0,0.0,33,0.00,,,0.00,2,WeatherHawk,2017-09-26 08:15:00,
2017-09-26 01:20:00,64.2,34.5,29.79,ESE,120,2.0,0.0,33,0.00,,,0.00,0,WeatherHawk,2017-09-26 08:20:00,
2017-09-26 01:25:00,64.0,35.1,29.79,ESE,118,1.0,0.0,34,0.00,,,0.00,1,WeatherHawk,2017-09-26 08:25:00,
2017-09-26 01:30:00,64.0,34.4,29.78,ESE,114,1.0,0.0,33,0.00,,,0.00,1,WeatherHawk,2017-09-26 08:30:00,
2017-09-26 01:35:00,64.0,35.1,29.78,ESE,106,2.0,0.0,34,0.00,,,0.00,0,WeatherHawk,2017-09-26 08:35:00,
2017-09-26 01:40:00,63.9,34.9,29.78,ESE,105,2.0,0.0,34,0.00,,,0.00,0,WeatherHawk,2017-09-26 08:40:00,
2017-09-26 01:45:00,64.0,34.4,29.78,East,96,2.0,0.0,33,0.00,,,0.00,0,WeatherHawk,2017-09-26 08:45:00,
2017-09-26 01:50:00,63.9,34.2,29.79,East,93,1.0,0.0,33,0.00,,,0.00,0,WeatherHawk,2017-09-26 08:50:00,
2017-09-26 01:55:00,63.9,34.2,29.79,East,86,1.0,0.0,33,0.00,,,0.00,2,WeatherHawk,2017-09-26 08:55:00,
2017-09-26 01:57:00,63.9,34.2,29.78,ENE,71,2.0,0.0,33,0.00,,,0.00,0,WeatherHawk,2017-09-26 08:57:00,
2017-09-26 02:02:00,63.9,34.2,29.78,East,94,2.0,0.0,33,0.00,,,0.00,1,WeatherHawk,2017-09-26 09:02:00,
2017-09-26 02:04:00,63.9,33.4,29.78,ENE,76,1.0,0.0,32,0.00,,,0.00,0,WeatherHawk,2017-09-26 09:04:00,
2017-09-26 02:09:00,64.2,32.9,29.78,East,83,2.0,0.0,31,0.00,,,0.00,0,WeatherHawk,2017-09-26 09:09:00,